Theta_e
286 281 279 283 287 288 286 284 283 286 291 292 295 297 300 303 299 297 297 300 302 313 321 325 325 322 323 326 327 328 329 330 330 328 326 326 326 327 327 328 328 327 327 326
279 275 281 285 286 286 288 284 283 286 290 290 291 293 297 301 302 301 299 299 300 301 312 320 323 325 322 323 325 327 328 329 329 329 329 329 328 328 330 330 329 329 328 327
276 278 283 281 282 282 283 284 285 284 288 288 287 287 291 298 301 303 303 302 301 302 302 310 320 323 326 323 324 325 327 328 329 330 329 327 329 328 328 329 330 330 330 330
277 280 280 279 278 283 278 287 288 287 284 279 287 279 287 294 297 300 303 303 303 303 303 303 309 319 323 325 327 326 326 328 329 329 328 327 327 326 327 328 329 328 329 328
276 278 281 279 279 283 281 286 286 286 284 282 283 280 283 291 291 296 301 304 302 305 305 303 302 309 319 324 326 326 326 327 328 328 329 328 328 328 327 327 327 328 328 328
279 284 283 282 285 285 286 284 282 284 284 277 281 280 280 286 290 294 299 303 305 304 304 303 306 309 311 315 321 324 323 323 326 327 328 329 328 327 327 327 327 328 328 329
275 278 281 285 280 283 283 277 270 271 273 272 281 279 282 288 290 294 296 299 304 306 305 301 303 305 307 312 315 316 318 317 322 323 324 325 326 327 326 324 324 323 324 318
267 267 278 282 280 277 279 278 271 266 269 273 281 277 281 289 292 294 292 293 299 299 298 300 302 303 304 308 311 312 312 312 312 311 312 313 314 313 312 312 312 309 309 308
272 270 280 281 282 281 276 277 281 276 276 274 276 280 285 287 289 291 291 292 293 293 296 298 298 299 300 304 306 308 308 308 307 307 306 306 306 304 302 302 302 301 302 303
274 270 278 282 284 282 279 281 274 276 267 268 275 276 278 282 286 289 290 292 291 294 294 294 295 294 295 297 299 302 304 305 305 303 301 299 298 298 297 297 297 297 298 298
276 275 274 277 276 277 279 277 275 279 276 270 271 274 281 283 285 288 289 291 292 293 292 292 292 292 292 294 295 296 297 298 299 299 298 296 295 295 295 294 294 294 295 295
276 274 270 271 279 283 281 279 279 271 271 277 275 275 285 285 285 287 288 289 289 290 290 289 289 290 291 291 292 292 292 292 292 292 292 291 291 291 291 291 291 292 291 292
272 268 262 267 271 281 278 280 282 280 277 273 271 274 284 285 285 286 286 286 285 286 286 287 287 286 287 290 291 290 290 289 289 289 289 288 288 288 288 288 289 289 289 289
283 272 268 263 265 268 271 276 280 279 274 274 275 277 281 284 285 286 284 284 284 284 284 284 284 284 285 286 287 288 289 287 287 287 287 285 285 285 285 286 286 286 286 286
277 266 267 272 274 274 273 273 275 275 278 275 277 277 282 284 285 285 284 282 283 282 282 282 282 283 283 284 284 284 284 285 285 284 283 283 283 284 284 283 283 283 283 284
275 266 268 269 274 275 274 274 275 278 279 279 279 278 284 285 284 283 283 283 283 283 282 282 282 282 283 283 283 283 283 282 283 282 281 282 282 282 282 281 281 282 281 282
275 269 265 260 274 273 265 272 275 277 279 279 276 280 284 282 284 284 283 283 283 282 282 282 282 282 282 283 283 282 281 282 281 280 280 280 280 280 280 280 280 280 280 280
275 272 271 261 262 260 274 280 274 277 280 280 281 282 284 286 286 285 285 283 282 281 282 281 281 281 282 281 281 281 281 280 280 279 279 279 279 278 279 278 278 278 278 278
279 276 265 258 253 266 272 276 275 275 275 282 280 282 283 286 285 283 284 284 283 283 282 282 282 281 280 281 281 281 280 279 279 278 277 277 278 277 277 277 277 277 277 277
276 278 270 256 256 256 271 276 281 281 273 282 283 282 282 286 281 283 284 283 282 282 282 281 280 279 279 279 280 279 278 277 277 276 276 276 276 276 275 275 276 276 276 276
269 269 267 261 261 264 275 277 280 270 276 281 283 284 284 286 286 286 284 283 284 283 282 281 280 280 279 279 279 277 277 276 276 276 275 275 274 275 275 275 275 275 275 274
264 262 256 257 255 262 277 277 275 279 281 283 284 283 284 283 284 285 285 283 283 281 281 280 279 278 278 278 278 276 276 276 275 274 273 272 272 274 275 273 274 273 273 272
265 269 265 266 267 276 278 279 280 281 282 282 282 283 283 283 283 283 282 282 282 281 280 279 279 278 277 277 277 276 275 275 273 272 270 270 271 273 273 272 272 271 271 271
270 273 269 269 274 275 278 279 279 281 281 282 282 281 282 282 282 281 281 280 280 280 279 278 278 277 277 276 276 275 274 274 270 269 269 270 270 270 270 271 271 271 270 270
273 272 269 270 276 277 278 279 280 281 281 280 281 282 282 282 281 282 281 281 281 280 278 278 278 277 277 275 274 272 272 271 270 269 268 269 269 268 269 269 270 271 272 272
274 273 272 272 275 275 276 277 279 279 280 280 281 280 281 282 283 282 281 279 278 278 276 275 275 275 275 273 272 270 270 270 269 268 268 267 267 267 267 267 268 272 274 276
Wind_Speed
4 4 3 8 7 6 4 3 5 4 12 7 9 16 17 13 5 9 8 9 11 13 12 10 13 13 12 13 14 16 14 13 10 8 8 6 7 7 7 7 10 9 8 8
5 2 3 6 6 5 7 11 9 6 9 3 9 15 12 16 12 12 15 13 11 7 6 7 11 13 15 15 15 14 15 14 12 9 8 4 7 6 7 7 8 10 9 9
2 3 7 2 3 3 9 8 7 9 10 7 7 18 17 9 14 12 13 12 12 12 9 7 10 15 13 15 17 15 15 15 14 12 7 4 4 2 5 5 6 8 11 11
4 4 3 3 4 4 6 4 2 8 5 7 3 11 11 22 21 17 18 14 15 13 9 7 10 10 14 18 13 15 14 15 13 14 10 12 9 7 6 5 5 5 5 5
6 2 2 3 4 6 4 2 3 6 8 4 15 8 5 10 18 20 19 17 15 17 15 14 11 12 11 9 12 12 12 12 13 13 11 10 9 5 3 2 5 4 4 5
8 3 4 5 3 2 4 2 4 1 4 10 14 11 6 7 9 8 17 19 18 17 13 10 6 5 4 3 6 9 12 11 11 12 12 13 10 6 4 4 4 3 2 1
5 5 3 4 2 3 5 4 2 4 7 16 11 12 22 2 2 5 8 10 16 16 16 10 9 7 5 6 7 8 11 7 8 9 5 5 6 6 5 3 2 2 2 4
0 10 6 4 9 6 9 8 5 9 6 5 8 13 9 6 12 12 4 5 5 6 6 8 8 7 6 6 7 9 9 8 8 10 9 7 7 6 5 5 4 4 4 4
3 7 5 6 3 8 4 9 8 7 6 4 5 11 9 1 4 3 2 3 4 4 4 7 6 5 4 6 6 10 11 9 10 11 10 9 9 8 6 6 6 5 5 4
5 8 3 2 3 7 6 1 4 4 6 6 5 10 11 2 7 4 6 5 1 6 6 6 8 8 8 8 8 10 10 7 8 11 14 6 12 9 8 6 6 7 6 6
3 6 5 4 6 8 5 5 5 3 8 4 3 6 2 6 5 8 7 4 4 8 9 8 7 8 9 11 9 11 13 10 8 8 10 9 10 10 7 7 5 7 7 6
3 3 6 11 6 3 6 9 10 7 8 5 13 13 2 3 7 6 2 4 5 4 8 10 9 8 8 10 10 10 11 12 9 9 9 10 10 9 9 7 7 8 7 8
3 4 5 11 7 1 3 4 6 10 2 16 9 8 4 5 6 4 3 7 8 5 6 8 9 8 8 9 9 11 10 10 9 8 10 12 9 9 8 7 6 7 8 6
4 3 7 7 8 1 11 12 13 15 7 17 16 22 19 14 7 1 3 2 6 9 6 6 7 8 8 8 9 9 9 9 8 9 10 9 9 8 6 5 5 7 6 8
5 5 4 12 15 13 20 21 17 16 14 7 5 10 20 15 9 7 7 3 6 11 11 7 7 7 8 9 9 8 8 8 8 8 8 7 7 7 4 4 4 7 8 7
2 5 2 17 17 12 15 18 17 18 17 13 14 20 11 8 5 8 11 9 10 10 13 12 8 8 8 8 8 8 7 7 6 8 10 5 6 5 4 5 6 7 7 7
4 2 2 8 6 11 10 18 18 10 8 13 14 20 3 6 9 13 13 9 9 9 9 12 12 10 8 7 7 9 8 6 6 8 6 4 5 6 5 5 7 8 7 6
6 4 1 6 6 3 9 1 5 11 10 12 16 10 5 5 0 3 9 12 9 8 8 8 7 8 8 5 6 6 6 6 7 6 5 4 5 7 5 6 7 6 4 5
11 6 2 1 3 10 12 3 5 7 10 17 22 16 13 6 6 1 5 6 11 10 8 8 7 4 5 7 7 8 6 5 6 6 5 5 5 5 5 6 5 4 4 4
4 6 4 3 1 7 5 2 1 3 10 2 11 11 8 15 8 6 9 9 9 9 8 10 8 6 7 5 6 7 6 6 5 5 5 5 4 5 5 3 4 2 3 6
3 1 10 4 5 12 12 5 3 0 5 12 10 10 15 16 3 11 14 8 11 12 10 7 8 8 7 6 7 7 7 6 5 5 5 4 3 4 4 5 5 6 6 5
8 7 5 3 1 12 6 2 4 2 6 8 6 3 8 5 5 18 15 15 14 11 9 8 8 7 6 6 7 6 6 5 5 5 5 5 6 5 5 5 2 3 3 3
4 8 7 12 11 4 3 4 4 3 3 8 2 2 9 8 7 12 14 14 12 12 9 7 9 9 7 6 6 7 6 6 5 5 5 4 4 3 3 2 2 2 3 2
6 5 5 2 7 18 13 12 11 7 7 7 3 5 6 10 10 11 11 9 9 9 11 8 8 7 6 4 3 4 6 6 6 5 4 3 2 1 1 1 1 0 1 1
7 7 6 12 19 12 18 14 10 5 4 3 2 3 7 11 8 11 8 11 12 8 6 6 7 6 5 6 6 5 6 7 5 4 3 3 2 2 1 2 2 2 2 3
10 10 13 12 7 4 7 6 6 10 8 8 7 5 5 6 15 11 9 6 7 8 6 5 7 6 7 6 6 6 6 7 6 4 3 3 3 3 2 2 2 4 4 3
Wind_Direction
357 67 200 209 228 248 260 273 294 311 305 302 246 243 249 248 234 233 238 233 219 210 229 195 190 185 190 192 196 192 190 192 175 173 173 191 201 205 209 210 213 211 213 213
16 241 295 298 309 289 278 268 271 283 264 306 294 265 253 246 232 221 224 229 229 229 189 190 192 187 197 194 200 198 193 183 188 182 187 180 183 205 208 205 212 204 196 203
174 260 326 314 321 310 267 267 265 259 292 306 263 262 248 245 229 232 230 225 224 223 217 204 193 199 195 200 201 199 195 185 186 187 174 138 145 110 171 192 207 211 198 197
225 272 265 291 246 174 247 188 263 288 229 239 64 285 233 222 228 225 225 218 225 226 235 210 198 203 200 211 200 199 194 188 188 178 185 188 193 189 195 194 198 206 205 213
264 265 248 255 226 184 228 36 320 274 260 280 246 277 269 178 230 234 222 222 215 223 220 215 205 205 212 211 196 193 185 184 184 182 186 188 204 190 134 146 171 205 205 211
254 302 230 215 205 158 337 339 339 297 297 241 224 212 205 208 229 219 229 223 216 213 213 209 169 145 165 172 170 171 171 178 173 176 186 192 190 156 153 172 191 196 218 240
313 219 263 156 212 219 224 126 264 202 209 238 167 201 239 253 344 195 251 240 223 209 208 182 173 174 169 173 152 145 153 142 146 147 159 170 166 139 133 96 87 69 43 50
327 327 192 185 211 183 191 194 183 194 203 264 131 227 258 242 271 238 207 300 239 190 177 180 172 157 158 160 140 133 133 131 110 101 97 81 79 80 74 70 83 74 67 50
301 268 279 200 181 162 226 218 250 322 249 252 239 267 295 10 313 344 345 30 256 298 188 156 121 108 108 119 113 123 118 120 115 111 101 93 82 76 77 74 72 82 72 72
276 292 249 278 161 233 219 182 206 212 230 240 241 249 235 247 242 262 250 194 130 97 74 78 94 97 87 79 93 95 97 112 127 127 117 100 101 103 83 65 71 73 59 55
253 226 287 41 215 186 186 226 240 285 245 264 299 251 274 255 266 235 258 164 171 126 113 99 94 92 97 91 82 96 98 94 87 94 93 105 111 98 99 101 88 81 73 58
238 296 270 233 249 261 254 215 209 222 239 244 247 259 144 314 295 284 77 78 58 78 115 111 99 95 94 96 95 91 89 93 81 82 88 93 89 84 68 71 82 69 65 52
252 286 333 328 352 351 219 235 234 234 269 248 251 276 339 40 341 336 203 134 118 95 81 100 98 94 92 93 96 96 93 88 88 92 98 76 66 77 84 64 73 75 77 66
241 220 200 224 221 169 288 272 254 249 222 245 243 265 261 271 275 79 351 120 123 115 91 92 88 93 89 85 91 96 98 99 94 90 78 99 103 83 83 89 64 70 63 59
167 231 229 262 270 263 260 263 253 253 245 250 266 258 266 246 218 190 154 176 155 135 122 121 119 108 104 100 93 88 85 90 97 94 106 82 82 75 70 81 82 70 60 57
192 262 245 285 264 267 264 258 250 238 245 243 255 267 257 277 133 156 163 174 169 168 146 134 122 116 116 115 112 107 104 89 107 108 89 84 94 116 109 79 71 70 58 51
223 210 348 267 312 314 295 236 223 224 209 221 229 245 124 228 219 179 164 163 171 159 146 137 137 132 131 134 130 121 116 108 99 88 99 132 128 102 81 80 72 61 58 52
237 176 216 271 351 267 244 305 184 208 239 222 253 243 236 260 35 152 164 147 146 149 139 128 130 133 131 116 100 111 107 116 113 116 133 128 97 81 76 66 64 62 51 50
217 227 272 236 222 299 290 192 164 178 246 235 247 250 223 153 120 103 152 140 156 151 145 139 130 118 109 132 140 128 125 136 146 131 107 80 77 89 75 65 59 56 42 40
225 239 174 86 219 247 250 252 141 92 269 31 308 241 160 157 166 207 160 129 123 123 134 144 143 127 135 155 140 137 155 156 120 118 115 92 79 79 80 88 91 78 54 33
176 219 230 221 255 280 250 224 156 38 311 334 288 211 172 193 216 134 129 115 139 144 148 132 138 151 161 162 155 156 164 140 124 104 98 99 109 116 83 54 42 30 32 22
173 158 211 85 147 265 199 184 222 291 308 318 304 64 139 103 112 126 134 138 138 138 145 156 149 160 172 174 161 153 141 144 132 127 110 69 49 42 49 58 43 46 49 41
254 198 194 194 216 231 240 243 232 227 273 287 259 100 118 130 132 129 142 149 148 153 155 164 168 168 180 181 173 150 143 133 116 86 81 86 72 68 62 80 43 51 54 54
250 181 237 23 253 236 254 269 261 245 237 281 211 144 139 139 149 130 136 140 148 166 180 181 164 161 173 182 148 98 130 126 120 119 113 99 93 95 29 20 14 118 237 92
208 152 208 264 276 274 261 246 244 267 254 221 191 151 135 134 133 140 145 175 185 166 133 152 170 176 189 178 190 171 153 143 141 140 149 173 181 199 210 259 229 240 266 211
181 206 197 229 207 155 259 322 216 192 214 206 176 149 157 165 164 176 177 150 148 168 157 168 188 194 202 192 195 182 170 159 149 159 177 190 182 186 193 219 296 281 279 272